Location: Unspecified
(0.0000°N, 0.0000°E)
Time: 04:29:26
(UTC+00:00)

STARLINK-1830 - Pass Details

Date: 25 April 2026
Orbit: 363 x 370 km, 53.0° (Epoch: 11 May)

Event Time Altitude Azimuth Distance (km) Brightness Sun altitude
Rises 19:05:18 0° 308° (NW) 2,203 8.0 -16.4°
Reaches altitude 10° 19:07:32 10° 294° (WNW) 1,354 6.9 -16.9°
Maximum altitude 19:10:06 25° 236° (SW) 782 4.8 -17.5°
Enters shadow 19:11:59 14° 186° (S) 1,122 5.1 -18.0°
